Miscellaneous Local Product
Issued by NWS Hastings, NE

Home | Current Version | Previous Version | Text Only | Print | Product List | Glossary Off
Versions: 1 2 3 4 5 6 7 8 9 10 11 12 13 14 15 16 17 18 19 20 21 22 23 24 25 26 27 28 29 30 31 32 33 34 35 36 37 38 39 40 41 42 43 44 45 46 47 48 49 50

000
AXUS43 KGID 181802
MISGRI

GID CWA HOURLY WEATHER ROUNDUP
NATIONAL WEATHER SERVICE HASTINGS NE
1200 PM CST SUN FEB 18 2018

NOTE: "FAIR" INDICATES FEW OR NO CLOUDS BELOW 12,000 FEET WITH NO
SIGNIFICANT WEATHER AND/OR OBSTRUCTIONS TO VISIBILITY.

...SOUTH CENTRAL NEBRASKA...

CITY           SKY/WX    TMP DP  RH WIND       PRES   REMARKS
GRAND ISLAND   CLOUDY    50  29  44 S28G45    29.59F
KEARNEY        CLOUDY    49  28  44 S28G38    29.57F
HASTINGS       CLOUDY    50  27  40 S23G43    29.61F
ORD            CLOUDY    48  28  46 S15G22    29.56F
YORK           CLOUDY    50  32  50 S32G41    29.62F
AURORA         CLOUDY    50  30  45 S26G39    29.60F
LEXINGTON      CLOUDY    49  31  49 S16       29.55F
HOLDREGE       CLOUDY    50  30  45 S24G32    29.58F
HEBRON         CLOUDY    55  32  42 S28G39    29.69F

...NEBRASKA PANHANDLE...

CITY           SKY/WX    TMP DP  RH WIND       PRES   REMARKS
CHADRON        PTSUNNY   39  28  64 CALM      29.54F
ALLIANCE       MOSUNNY   46  26  45 N21       29.49R
SCOTTSBLUFF    MOSUNNY   63  17  17 W10       29.45F
SIDNEY         SUNNY     65  14  14 SW9       29.48F

...WESTERN AND NORTH CENTRAL NEBRASKA...

CITY           SKY/WX    TMP DP  RH WIND       PRES   REMARKS
VALENTINE      PTSUNNY   42  28  57 NW21      29.55R
AINSWORTH      CLOUDY    44  27  50 NW9       29.52S
ONEILL         CLOUDY    47  30  50 SW12      29.55R
BROKEN BOW     CLOUDY    45  30  55 S20       29.53F
IMPERIAL       MOSUNNY   51  25  36 CALM      29.51F
NORTH PLATTE   PTSUNNY   47  31  53 S13       29.53F
MCCOOK         CLOUDY    49  32  52 S8        29.55S

...EASTERN NEBRASKA...

CITY           SKY/WX    TMP DP  RH WIND       PRES   REMARKS
NORFOLK        MOSUNNY   44  30  57 S24G38    29.56S
SO SIOUX CITY  MOSUNNY   43  30  60 S17G30    29.64F
TEKAMAH        CLOUDY    48  33  56 S29G40    29.66F
COLUMBUS       CLOUDY    47  30  51 S24G35    29.61F
ALBION         CLOUDY    46  29  51 S15G24    29.59F
OMAHA EPPLEY   PTSUNNY   51  27  39 S37G55    29.69F
OFFUTT AFB     CLOUDY    52  27  38 S33G41    29.71F
MILLARD        CLOUDY    52  29  41 S18G35    29.71F
LINCOLN        CLOUDY    54  27  35 S30G46    29.68F
NEBRASKA CITY  CLOUDY    52  26  36 S31G38    29.75F
BEATRICE       MOSUNNY   55  26  33 S32G44    29.71F
FALLS CITY     CLOUDY    52  21  29 S26G41    29.80F

...NORTHERN KANSAS...

CITY           SKY/WX    TMP DP  RH WIND       PRES   REMARKS
GOODLAND       CLOUDY    60  18  19 SW23G33   29.51F
HILL CITY      CLOUDY    57  30  35 S26G37    29.60
NORTON         CLEAR     54  21  28 S23G32    29.56F
PHILLIPSBURG   SUNNY     55  27  33 S23G29    29.61F
SMITH CENTER   SUNNY     54  28  37 S29G37    29.64F
BELOIT         SUNNY     57  34  41 S30G37    29.70F
HAYS           CLOUDY    57  32  38 SW36G49   29.62F
RUSSELL        CLOUDY    62  36  37 S38G55    29.63F
CONCORDIA      MOSUNNY   56  35  45 S33G41    29.71F
SALINA         MOSUNNY   55  39  54 S30G44    29.76F
TOPEKA         CLOUDY    52  28  39 S24G36    29.89F



USA.gov is the U.S. government's official web portal to all federal, state and local government web resources and services.